STARLINK-2319, 47790

Orbit data source: Space-Track

STARLINK-2319, 47790 is a payload satellite owned by SpaceX/Seattle (US) in LEO that was launched on Thu, 11 Mar 2021 UTC via an FALCON 9 launch vehicle from the Air Force Eastern Test Range (AFETR). Payload-class satellites include a variety of spacecraft equipped with specific instruments for various scientific and technological missions. These include communications satellites like Starlink; space stations such as the ISS; scientific satellites like the Hubble; Earth observation satellites from companies like Planet Labs, Umbra, and HawkEye 360; GPS; miniature CubeSats for education and research; and military/defense satellites.

Loading next visibility...
Identifier
47790, 2021-018D
Orbit
LEO
Country
Flag of USUS
Related business
Manufacturer
SpaceX/Seattle
Mission
Operational Commercial Communications
Bus & Motor
STARLINK, Unknown motor
Mass
260 kg wet, ~248 kg dry
Launch date (UTC)
2021-03-11 (5 years ago)
Launch vehicle
FALCON 9
Launch site
Air Force Eastern Test Range (AFETR)
Object type
Payload
Rocket body
Debris
Shape & HBR
Box + 1 Pan, 10.1 m
Radar Cross Section
13.562 m², Large (>1 m²)

Expand to show TLE details & history
Last TLE update: 8 hours ago

TLE from 8 hours ago
0 STARLINK-2319
1 47790U 21018D   26120.25002315 -.00001855  00000-0 -47954-4 0  9992
2 47790  53.1588 336.9967 0000856  87.1744 105.3056 15.31754570  5869
Epoch: 2026-04-30T06:00Z
TLE epoch observation values (Epoch: 2026-04-30T06:00:02.000Z)
Latitude
-10.10463°
Longitude
-143.5807°
Altitude
473.492 km
Speed
7.63 km/s
True Right ascension
10h 58m 30s
True Declination
-10° 02' 35"
Sunlit
Object was in full shadow at epoch
Visualization orbit readout
Latitude
Unknown
Longitude
Unknown
Altitude
Unknown
Speed
Unknown
Apparent Right ascension
Unknown
Apparent Declination
Unknown
Sunlit
N/A
Visualization observer readout
Local Sidereal Time
21:30:02
Azimuth
Unknown
Elevation
Unknown
Doppler factor
Unknown
Orbital elements
Apogee altitude
471.42 km
Perigee altitude
470.248 km
Semi-major axis
6,848.971 km
Eccentricity
0.00009
Inclination
53.1588°
RAAN
336.9967°
Arg. of periapsis
87.1744°
True anomaly
105.31506°
Mean anomaly
105.3056°
Eccentric anomaly
105.31033°
Mean motion
3.82917 °/min
Orbital period
94.02 mins
BSTAR
-0.000047954
Loading maneuver chart data...
Computing Atmospheric mass density...
Loading historical data...
Loading historical data...
Loading historical data...
Loading historical data...
Loading historical data...
Loading historical data...
Loading historical data...

Documentation

Showing up to 5 results
|